Time,TemperatureF,DewpointF,PressureIn,WindDirection,WindDirectionDegrees,WindSpeedMPH,WindSpeedGustMPH,Humidity,HourlyPrecipIn,Conditions,Clouds,dailyrainin,SoftwareType,DateUTC
2013-03-12 00:00:00,42.4,37.3,29.77,WNW,284,4.0,18.0,82,0.00,,,0.97,WUHU216DAVISVP2,2013-03-12 04:00:00,
2013-03-12 00:05:00,42.4,37.3,29.78,West,261,4.0,16.0,82,0.00,,,0.97,WUHU216DAVISVP2,2013-03-12 04:05:00,
2013-03-12 00:10:00,42.3,37.5,29.78,WNW,294,2.0,14.0,83,0.00,,,0.00,WUHU216DAVISVP2,2013-03-12 04:10:00,
2013-03-12 00:15:00,42.1,37.6,29.78,West,263,10.0,10.0,84,0.00,,,0.00,WUHU216DAVISVP2,2013-03-12 04:15:00,
2013-03-12 00:20:00,41.9,36.8,29.78,WSW,248,10.0,12.0,82,0.00,,,0.00,WUHU216DAVISVP2,2013-03-12 04:20:00,
2013-03-12 00:25:00,41.8,36.1,29.78,WSW,248,8.0,30.0,80,0.00,,,0.00,WUHU216DAVISVP2,2013-03-12 04:25:00,
2013-03-12 00:30:00,41.7,35.7,29.78,WNW,300,12.0,30.0,79,0.00,,,0.00,WUHU216DAVISVP2,2013-03-12 04:30:00,
2013-03-12 00:35:00,41.5,35.2,29.79,West,268,8.0,24.0,78,0.00,,,0.00,WUHU216DAVISVP2,2013-03-12 04:35:00,
2013-03-12 00:40:00,41.3,35.3,29.79,WNW,285,6.0,24.0,79,0.00,,,0.00,WUHU216DAVISVP2,2013-03-12 04:40:00,
2013-03-12 00:45:00,41.2,35.2,29.79,West,274,14.0,24.0,79,0.00,,,0.00,WUHU216DAVISVP2,2013-03-12 04:45:00,
2013-03-12 00:50:00,41.0,35.3,29.79,WNW,288,4.0,20.0,80,0.00,,,0.00,WUHU216DAVISVP2,2013-03-12 04:50:00,
2013-03-12 00:55:00,40.9,35.2,29.79,WSW,244,12.0,18.0,80,0.00,,,0.00,WUHU216DAVISVP2,2013-03-12 04:55:00,
2013-03-12 01:00:00,40.3,35.2,29.80,NW,307,8.0,12.0,82,0.00,,,0.00,WUHU216DAVISVP2,2013-03-12 05:00:00,
2013-03-12 01:06:00,39.6,34.6,29.80,WSW,254,14.0,16.0,82,0.00,,,0.00,WUHU216DAVISVP2,2013-03-12 05:06:00,
2013-03-12 01:11:00,39.3,34.6,29.80,West,271,10.0,16.0,83,0.00,,,0.00,WUHU216DAVISVP2,2013-03-12 05:11:00,
2013-03-12 01:16:00,39.1,34.7,29.80,West,259,10.0,22.0,84,0.00,,,0.00,WUHU216DAVISVP2,2013-03-12 05:16:00,
2013-03-12 01:21:00,39.0,34.3,29.80,NNW,335,6.0,22.0,83,0.00,,,0.00,WUHU216DAVISVP2,2013-03-12 05:21:00,
2013-03-12 01:26:00,39.1,34.4,29.80,WNW,299,6.0,18.0,83,0.00,,,0.00,WUHU216DAVISVP2,2013-03-12 05:26:00,
2013-03-12 01:31:00,38.9,34.2,29.80,WNW,302,8.0,20.0,83,0.00,,,0.00,WUHU216DAVISVP2,2013-03-12 05:31:00,
2013-03-12 01:36:00,38.9,33.9,29.80,West,265,10.0,20.0,82,0.00,,,0.00,WUHU216DAVISVP2,2013-03-12 05:36:00,
2013-03-12 01:41:00,38.9,33.9,29.81,West,280,14.0,20.0,82,0.00,,,0.00,WUHU216DAVISVP2,2013-03-12 05:41:00,
2013-03-12 01:46:00,38.9,33.6,29.81,North,5,0.0,20.0,81,0.00,,,0.00,WUHU216DAVISVP2,2013-03-12 05:46:00,
2013-03-12 01:51:00,38.8,33.5,29.81,West,264,10.0,18.0,81,0.00,,,0.00,WUHU216DAVISVP2,2013-03-12 05:51:00,
2013-03-12 01:56:00,38.9,33.6,29.82,WSW,254,22.0,22.0,81,0.00,,,0.00,WUHU216DAVISVP2,2013-03-12 05:56:00,
2013-03-12 02:01:00,39.0,33.1,29.81,WSW,252,8.0,28.0,79,0.00,,,0.00,WUHU216DAVISVP2,2013-03-12 06:01:00,
2013-03-12 02:06:00,39.0,33.1,29.82,West,265,8.0,28.0,79,0.00,,,0.00,WUHU216DAVISVP2,2013-03-12 06:06:00,
2013-03-12 02:11:00,39.0,33.4,29.82,West,273,2.0,14.0,80,0.00,,,0.00,WUHU216DAVISVP2,2013-03-12 06:11:00,
2013-03-12 02:16:00,38.9,33.0,29.82,West,266,22.0,22.0,79,0.00,,,0.00,WUHU216DAVISVP2,2013-03-12 06:16:00,
2013-03-12 02:21:00,38.9,32.3,29.82,WNW,284,10.0,22.0,77,0.00,,,0.00,WUHU216DAVISVP2,2013-03-12 06:21:00,
2013-03-12 02:27:00,38.9,32.0,29.83,WSW,250,12.0,22.0,76,0.00,,,0.00,WUHU216DAVISVP2,2013-03-12 06:27:00,
2013-03-12 02:32:00,38.9,32.0,29.82,West,265,16.0,22.0,76,0.00,,,0.00,WUHU216DAVISVP2,2013-03-12 06:32:00,
2013-03-12 02:37:00,38.9,31.7,29.82,West,259,8.0,22.0,75,0.00,,,0.00,WUHU216DAVISVP2,2013-03-12 06:37:00,
2013-03-12 02:42:00,38.8,31.9,29.82,SW,217,6.0,20.0,76,0.00,,,0.00,WUHU216DAVISVP2,2013-03-12 06:42:00,
2013-03-12 02:47:00,38.7,31.8,29.82,WSW,250,8.0,20.0,76,0.00,,,0.00,WUHU216DAVISVP2,2013-03-12 06:47:00,
2013-03-12 02:52:00,38.7,31.8,29.83,West,275,14.0,24.0,76,0.00,,,0.00,WUHU216DAVISVP2,2013-03-12 06:52:00,
2013-03-12 02:57:00,38.7,31.8,29.83,West,275,4.0,24.0,76,0.00,,,0.00,WUHU216DAVISVP2,2013-03-12 06:57:00,
2013-03-12 03:02:00,38.6,32.1,29.83,WSW,242,6.0,24.0,77,0.00,,,0.00,WUHU216DAVISVP2,2013-03-12 07:02:00,
2013-03-12 03:07:00,38.6,31.4,29.83,West,275,16.0,18.0,75,0.00,,,0.00,WUHU216DAVISVP2,2013-03-12 07:07:00,
2013-03-12 03:12:00,38.5,31.6,29.83,WNW,288,4.0,18.0,76,0.00,,,0.00,WUHU216DAVISVP2,2013-03-12 07:12:00,
2013-03-12 03:17:00,38.5,31.6,29.83,WSW,255,6.0,14.0,76,0.00,,,0.00,WUHU216DAVISVP2,2013-03-12 07:17:00,
2013-03-12 03:22:00,38.4,31.9,29.83,WNW,298,2.0,14.0,77,0.00,,,0.00,WUHU216DAVISVP2,2013-03-12 07:22:00,
2013-03-12 03:27:00,38.4,31.5,29.83,SW,233,2.0,22.0,76,0.00,,,0.00,WUHU216DAVISVP2,2013-03-12 07:27:00,
2013-03-12 03:32:00,38.4,32.2,29.84,West,273,6.0,22.0,78,0.00,,,0.00,WUHU216DAVISVP2,2013-03-12 07:32:00,
2013-03-12 03:37:00,38.2,32.0,29.84,WSW,246,6.0,24.0,78,0.00,,,0.00,WUHU216DAVISVP2,2013-03-12 07:37:00,
2013-03-12 03:42:00,38.0,31.8,29.84,West,259,4.0,24.0,78,0.00,,,0.00,WUHU216DAVISVP2,2013-03-12 07:42:00,
2013-03-12 03:48:00,37.9,31.7,29.84,NW,317,4.0,20.0,78,0.00,,,0.00,WUHU216DAVISVP2,2013-03-12 07:48:00,
2013-03-12 03:53:00,37.8,31.9,29.84,SW,236,8.0,20.0,79,0.00,,,0.00,WUHU216DAVISVP2,2013-03-12 07:53:00,
2013-03-12 03:58:00,37.8,31.6,29.84,West,262,12.0,14.0,78,0.00,,,0.00,WUHU216DAVISVP2,2013-03-12 07:58:00,
2013-03-12 04:03:00,37.7,31.5,29.84,WSW,254,6.0,14.0,78,0.00,,,0.00,WUHU216DAVISVP2,2013-03-12 08:03:00,
2013-03-12 04:08:00,37.7,31.5,29.84,West,271,4.0,18.0,78,0.00,,,0.00,WUHU216DAVISVP2,2013-03-12 08:08:00,
2013-03-12 04:13:00,37.7,31.8,29.84,WNW,301,4.0,20.0,79,0.00,,,0.00,WUHU216DAVISVP2,2013-03-12 08:13:00,
2013-03-12 04:18:00,37.6,32.0,29.84,NW,308,4.0,20.0,80,0.00,,,0.00,WUHU216DAVISVP2,2013-03-12 08:18:00,
2013-03-12 04:23:00,37.5,31.9,29.84,West,267,4.0,18.0,80,0.00,,,0.00,WUHU216DAVISVP2,2013-03-12 08:23:00,
2013-03-12 04:28:00,37.5,32.2,29.84,West,268,4.0,18.0,81,0.00,,,0.00,WUHU216DAVISVP2,2013-03-12 08:28:00,
2013-03-12 04:33:00,37.4,32.1,29.84,WNW,299,6.0,18.0,81,0.00,,,0.00,WUHU216DAVISVP2,2013-03-12 08:33:00,
2013-03-12 04:38:00,37.4,32.1,29.84,WNW,289,4.0,18.0,81,0.00,,,0.00,WUHU216DAVISVP2,2013-03-12 08:38:00,
2013-03-12 04:43:00,37.4,32.4,29.84,NNW,340,4.0,16.0,82,0.00,,,0.00,WUHU216DAVISVP2,2013-03-12 08:43:00,
2013-03-12 04:48:00,37.3,32.6,29.84,WSW,250,2.0,16.0,83,0.00,,,0.00,WUHU216DAVISVP2,2013-03-12 08:48:00,
2013-03-12 04:53:00,37.3,32.0,29.84,WSW,249,10.0,20.0,81,0.00,,,0.00,WUHU216DAVISVP2,2013-03-12 08:53:00,
2013-03-12 04:58:00,37.4,31.8,29.84,WSW,249,8.0,20.0,80,0.00,,,0.00,WUHU216DAVISVP2,2013-03-12 08:58:00,
2013-03-12 05:03:00,37.4,31.8,29.85,WSW,258,10.0,18.0,80,0.00,,,0.00,WUHU216DAVISVP2,2013-03-12 09:03:00,
2013-03-12 05:08:00,37.4,31.8,29.85,East,101,10.0,20.0,80,0.00,,,0.00,WUHU216DAVISVP2,2013-03-12 09:08:00,
2013-03-12 05:14:00,37.3,31.4,29.85,WSW,242,4.0,20.0,79,0.00,,,0.00,WUHU216DAVISVP2,2013-03-12 09:14:00,
2013-03-12 05:19:00,37.2,31.3,29.85,WSW,241,8.0,20.0,79,0.00,,,0.00,WUHU216DAVISVP2,2013-03-12 09:19:00,
2013-03-12 05:24:00,37.1,31.5,29.85,NW,312,4.0,20.0,80,0.00,,,0.00,WUHU216DAVISVP2,2013-03-12 09:24:00,
2013-03-12 05:29:00,37.0,31.1,29.85,West,275,4.0,14.0,79,0.00,,,0.00,WUHU216DAVISVP2,2013-03-12 09:29:00,
2013-03-12 05:34:00,37.0,31.1,29.85,West,279,6.0,14.0,79,0.00,,,0.00,WUHU216DAVISVP2,2013-03-12 09:34:00,
2013-03-12 05:39:00,37.0,31.1,29.85,WNW,299,4.0,12.0,79,0.00,,,0.00,WUHU216DAVISVP2,2013-03-12 09:39:00,
2013-03-12 05:44:00,37.0,31.7,29.86,West,259,10.0,10.0,81,0.00,,,0.00,WUHU216DAVISVP2,2013-03-12 09:44:00,
2013-03-12 05:49:00,37.0,31.4,29.86,WNW,298,6.0,12.0,80,0.00,,,0.00,WUHU216DAVISVP2,2013-03-12 09:49:00,
2013-03-12 05:54:00,36.9,31.6,29.86,WNW,286,6.0,12.0,81,0.00,,,0.00,WUHU216DAVISVP2,2013-03-12 09:54:00,
2013-03-12 05:59:00,36.8,31.2,29.86,West,261,8.0,20.0,80,0.00,,,0.00,WUHU216DAVISVP2,2013-03-12 09:59:00,
2013-03-12 06:04:00,36.8,31.2,29.86,SW,228,8.0,20.0,80,0.00,,,0.00,WUHU216DAVISVP2,2013-03-12 10:04:00,
2013-03-12 06:09:00,36.8,31.2,29.86,SW,224,8.0,16.0,80,0.00,,,0.00,WUHU216DAVISVP2,2013-03-12 10:09:00,
2013-03-12 06:14:00,36.7,31.4,29.86,WSW,252,4.0,12.0,81,0.00,,,0.00,WUHU216DAVISVP2,2013-03-12 10:14:00,
2013-03-12 06:19:00,36.7,31.4,29.86,West,267,6.0,14.0,81,0.00,,,0.00,WUHU216DAVISVP2,2013-03-12 10:19:00,
2013-03-12 06:24:00,36.7,31.1,29.86,SSE,164,2.0,14.0,80,0.00,,,0.00,WUHU216DAVISVP2,2013-03-12 10:24:00,
2013-03-12 06:29:00,36.8,31.2,29.86,WSW,251,4.0,18.0,80,0.00,,,0.00,WUHU216DAVISVP2,2013-03-12 10:29:00,
2013-03-12 06:34:00,36.8,31.2,29.86,SW,234,4.0,18.0,80,0.00,,,0.00,WUHU216DAVISVP2,2013-03-12 10:34:00,
2013-03-12 06:39:00,36.7,31.4,29.86,SW,222,4.0,10.0,81,0.00,,,0.00,WUHU216DAVISVP2,2013-03-12 10:39:00,
2013-03-12 06:44:00,36.7,31.1,29.87,SW,236,4.0,14.0,80,0.00,,,0.00,WUHU216DAVISVP2,2013-03-12 10:44:00,
2013-03-12 06:49:00,36.7,31.1,29.87,West,266,6.0,14.0,80,0.00,,,0.00,WUHU216DAVISVP2,2013-03-12 10:49:00,
2013-03-12 06:55:00,36.7,31.1,29.87,WSW,238,6.0,14.0,80,0.00,,,0.00,WUHU216DAVISVP2,2013-03-12 10:55:00,
2013-03-12 07:00:00,36.7,31.1,29.87,West,262,2.0,14.0,80,0.00,,,0.00,WUHU216DAVISVP2,2013-03-12 11:00:00,
2013-03-12 07:05:00,36.6,31.0,29.87,WSW,250,0.0,14.0,80,0.00,,,0.00,WUHU216DAVISVP2,2013-03-12 11:05:00,
2013-03-12 07:10:00,36.6,31.0,29.88,WNW,301,6.0,12.0,80,0.00,,,0.00,WUHU216DAVISVP2,2013-03-12 11:10:00,
2013-03-12 07:15:00,36.5,30.9,29.88,SW,236,12.0,16.0,80,0.00,,,0.00,WUHU216DAVISVP2,2013-03-12 11:15:00,
2013-03-12 07:20:00,36.5,30.9,29.88,West,274,4.0,20.0,80,0.00,,,0.00,WUHU216DAVISVP2,2013-03-12 11:20:00,
2013-03-12 07:25:00,36.4,30.8,29.88,WSW,246,6.0,20.0,80,0.00,,,0.00,WUHU216DAVISVP2,2013-03-12 11:25:00,
2013-03-12 07:30:00,36.4,30.5,29.88,West,278,4.0,28.0,79,0.00,,,0.00,WUHU216DAVISVP2,2013-03-12 11:30:00,
2013-03-12 07:35:00,36.4,30.8,29.88,WNW,292,0.0,28.0,80,0.00,,,0.00,WUHU216DAVISVP2,2013-03-12 11:35:00,
2013-03-12 07:40:00,36.3,30.7,29.88,WSW,250,12.0,20.0,80,0.00,,,0.00,WUHU216DAVISVP2,2013-03-12 11:40:00,
2013-03-12 07:45:00,36.3,30.7,29.88,WNW,284,6.0,20.0,80,0.00,,,0.00,WUHU216DAVISVP2,2013-03-12 11:45:00,
2013-03-12 07:50:00,36.2,30.6,29.88,WNW,288,2.0,16.0,80,0.00,,,0.00,WUHU216DAVISVP2,2013-03-12 11:50:00,
2013-03-12 07:55:00,36.2,30.9,29.89,West,265,6.0,16.0,81,0.00,,,0.00,WUHU216DAVISVP2,2013-03-12 11:55:00,
2013-03-12 08:00:00,36.1,30.8,29.89,WNW,288,4.0,16.0,81,0.00,,,0.00,WUHU216DAVISVP2,2013-03-12 12:00:00,
2013-03-12 08:05:00,36.0,31.0,29.89,SW,220,6.0,16.0,82,0.00,,,0.00,WUHU216DAVISVP2,2013-03-12 12:05:00,
2013-03-12 08:10:00,36.0,30.7,29.89,West,269,8.0,14.0,81,0.00,,,0.00,WUHU216DAVISVP2,2013-03-12 12:10:00,
2013-03-12 08:15:00,35.9,30.6,29.90,West,266,10.0,14.0,81,0.00,,,0.00,WUHU216DAVISVP2,2013-03-12 12:15:00,
2013-03-12 08:20:00,35.9,30.9,29.90,WNW,287,6.0,14.0,82,0.00,,,0.00,WUHU216DAVISVP2,2013-03-12 12:20:00,
2013-03-12 08:25:00,35.8,30.8,29.90,West,273,8.0,16.0,82,0.00,,,0.00,WUHU216DAVISVP2,2013-03-12 12:25:00,
2013-03-12 08:30:00,35.7,30.7,29.90,WSW,257,12.0,16.0,82,0.00,,,0.00,WUHU216DAVISVP2,2013-03-12 12:30:00,
2013-03-12 08:35:00,35.7,31.3,29.90,West,279,8.0,24.0,84,0.00,,,0.00,WUHU216DAVISVP2,2013-03-12 12:35:00,
2013-03-12 08:40:00,35.7,31.3,29.90,WSW,254,2.0,24.0,84,0.00,,,0.00,WUHU216DAVISVP2,2013-03-12 12:40:00,
2013-03-12 08:46:00,35.6,31.2,29.90,WSW,244,6.0,14.0,84,0.00,,,0.00,WUHU216DAVISVP2,2013-03-12 12:46:00,
2013-03-12 08:51:00,35.5,31.4,29.91,WSW,258,4.0,14.0,85,0.00,,,0.00,WUHU216DAVISVP2,2013-03-12 12:51:00,
2013-03-12 08:56:00,35.3,31.2,29.91,WSW,248,10.0,16.0,85,0.00,,,0.00,WUHU216DAVISVP2,2013-03-12 12:56:00,
2013-03-12 09:01:00,35.0,31.2,29.91,SW,216,2.0,18.0,86,0.00,,,0.00,WUHU216DAVISVP2,2013-03-12 13:01:00,
2013-03-12 09:06:00,34.8,31.3,29.91,WSW,254,4.0,14.0,87,0.00,,,0.00,WUHU216DAVISVP2,2013-03-12 13:06:00,
2013-03-12 09:11:00,34.8,31.3,29.91,West,271,8.0,14.0,87,0.00,,,0.00,WUHU216DAVISVP2,2013-03-12 13:11:00,
2013-03-12 09:16:00,34.8,31.0,29.91,SW,218,12.0,14.0,86,0.00,,,0.00,WUHU216DAVISVP2,2013-03-12 13:16:00,
2013-03-12 09:21:00,34.9,31.1,29.91,West,269,6.0,18.0,86,0.00,,,0.00,WUHU216DAVISVP2,2013-03-12 13:21:00,
2013-03-12 09:26:00,35.0,30.9,29.91,WNW,294,6.0,18.0,85,0.00,,,0.00,WUHU216DAVISVP2,2013-03-12 13:26:00,
2013-03-12 09:32:00,35.0,30.9,29.91,West,263,6.0,16.0,85,0.00,,,0.00,WUHU216DAVISVP2,2013-03-12 13:32:00,
2013-03-12 09:37:00,35.0,30.9,29.92,West,261,12.0,16.0,85,0.00,,,0.00,WUHU216DAVISVP2,2013-03-12 13:37:00,
2013-03-12 09:42:00,34.8,30.7,29.92,NW,304,6.0,16.0,85,0.00,,,0.00,WUHU216DAVISVP2,2013-03-12 13:42:00,
2013-03-12 09:47:00,34.6,30.5,29.92,West,277,10.0,18.0,85,0.00,,,0.00,WUHU216DAVISVP2,2013-03-12 13:47:00,
2013-03-12 09:52:00,34.4,30.6,29.92,WSW,250,12.0,18.0,86,0.00,,,0.00,WUHU216DAVISVP2,2013-03-12 13:52:00,
2013-03-12 09:57:00,34.1,30.6,29.92,WSW,248,10.0,16.0,87,0.00,,,0.00,WUHU216DAVISVP2,2013-03-12 13:57:00,
2013-03-12 10:02:00,34.1,30.6,29.92,WSW,255,4.0,18.0,87,0.00,,,0.00,WUHU216DAVISVP2,2013-03-12 14:02:00,
2013-03-12 10:07:00,34.2,30.4,29.92,West,275,4.0,18.0,86,0.00,,,0.00,WUHU216DAVISVP2,2013-03-12 14:07:00,
2013-03-12 10:12:00,34.4,30.6,29.92,WNW,284,2.0,16.0,86,0.00,,,0.00,WUHU216DAVISVP2,2013-03-12 14:12:00,
2013-03-12 10:17:00,34.6,30.5,29.93,WNW,294,8.0,18.0,85,0.00,,,0.00,WUHU216DAVISVP2,2013-03-12 14:17:00,
2013-03-12 10:22:00,34.7,30.3,29.93,West,264,6.0,18.0,84,0.00,,,0.00,WUHU216DAVISVP2,2013-03-12 14:22:00,
2013-03-12 10:28:00,34.9,30.3,29.93,WNW,297,4.0,20.0,83,0.00,,,0.00,WUHU216DAVISVP2,2013-03-12 14:28:00,
2013-03-12 10:33:00,35.0,30.3,29.93,WSW,252,4.0,20.0,83,0.00,,,0.00,WUHU216DAVISVP2,2013-03-12 14:33:00,
2013-03-12 10:38:00,35.2,30.5,29.93,West,269,0.0,16.0,83,0.00,,,0.00,WUHU216DAVISVP2,2013-03-12 14:38:00,
2013-03-12 10:43:00,35.2,30.5,29.93,West,262,10.0,14.0,83,0.00,,,0.00,WUHU216DAVISVP2,2013-03-12 14:43:00,
2013-03-12 10:48:00,35.2,30.3,29.93,WSW,238,16.0,16.0,82,0.00,,,0.00,WUHU216DAVISVP2,2013-03-12 14:48:00,
2013-03-12 10:53:00,35.2,30.3,29.93,West,271,8.0,16.0,82,0.00,,,0.00,WUHU216DAVISVP2,2013-03-12 14:53:00,
2013-03-12 10:58:00,35.2,30.3,29.93,WNW,299,4.0,20.0,82,0.00,,,0.00,WUHU216DAVISVP2,2013-03-12 14:58:00,
2013-03-12 11:03:00,35.2,30.3,29.93,WSW,246,4.0,20.0,82,0.00,,,0.00,WUHU216DAVISVP2,2013-03-12 15:03:00,
2013-03-12 11:08:00,35.2,30.3,29.93,WSW,248,8.0,14.0,82,0.00,,,0.00,WUHU216DAVISVP2,2013-03-12 15:08:00,
2013-03-12 11:13:00,35.2,30.3,29.93,West,269,8.0,12.0,82,0.00,,,0.00,WUHU216DAVISVP2,2013-03-12 15:13:00,
2013-03-12 11:18:00,35.3,30.1,29.93,West,262,10.0,18.0,81,0.00,,,0.00,WUHU216DAVISVP2,2013-03-12 15:18:00,
2013-03-12 11:23:00,35.5,30.3,29.93,WNW,292,6.0,20.0,81,0.00,,,0.00,WUHU216DAVISVP2,2013-03-12 15:23:00,
2013-03-12 11:28:00,35.6,30.1,29.93,SSW,209,10.0,20.0,80,0.00,,,0.00,WUHU216DAVISVP2,2013-03-12 15:28:00,
2013-03-12 11:33:00,35.7,30.1,29.93,West,279,6.0,18.0,80,0.00,,,0.00,WUHU216DAVISVP2,2013-03-12 15:33:00,
2013-03-12 11:38:00,35.7,30.1,29.93,West,262,4.0,18.0,80,0.00,,,0.00,WUHU216DAVISVP2,2013-03-12 15:38:00,
2013-03-12 11:43:00,35.7,30.1,29.93,West,268,10.0,18.0,80,0.00,,,0.00,WUHU216DAVISVP2,2013-03-12 15:43:00,
2013-03-12 11:48:00,35.6,30.1,29.93,SSW,211,10.0,18.0,80,0.00,,,0.00,WUHU216DAVISVP2,2013-03-12 15:48:00,
2013-03-12 11:54:00,35.4,29.9,29.93,West,259,8.0,20.0,80,0.00,,,0.00,WUHU216DAVISVP2,2013-03-12 15:54:00,
2013-03-12 11:59:00,35.4,30.2,29.94,WSW,256,4.0,20.0,81,0.00,,,0.00,WUHU216DAVISVP2,2013-03-12 15:59:00,
2013-03-12 12:05:00,35.4,30.1,29.94,WNW,284,6.0,14.0,81,0.00,,,0.00,WUHU216DAVISVP2,2013-03-12 16:05:00,
2013-03-12 12:10:00,35.7,30.1,29.94,WNW,290,4.0,12.0,80,0.00,,,0.00,WUHU216DAVISVP2,2013-03-12 16:10:00,
2013-03-12 12:15:00,35.8,29.6,29.94,West,266,6.0,22.0,78,0.00,,,0.00,WUHU216DAVISVP2,2013-03-12 16:15:00,
2013-03-12 12:20:00,35.9,29.7,29.94,WSW,252,8.0,22.0,78,0.00,,,0.00,WUHU216DAVISVP2,2013-03-12 16:20:00,
2013-03-12 12:25:00,35.9,29.7,29.94,West,273,10.0,22.0,78,0.00,,,0.00,WUHU216DAVISVP2,2013-03-12 16:25:00,
2013-03-12 12:31:00,35.9,29.7,29.94,WNW,288,10.0,26.0,78,0.00,,,0.00,WUHU216DAVISVP2,2013-03-12 16:31:00,
2013-03-12 12:36:00,35.9,29.7,29.94,WSW,252,12.0,26.0,78,0.00,,,0.00,WUHU216DAVISVP2,2013-03-12 16:36:00,
2013-03-12 12:41:00,35.9,29.7,29.94,SW,234,4.0,20.0,78,0.00,,,0.00,WUHU216DAVISVP2,2013-03-12 16:41:00,
2013-03-12 12:46:00,35.8,29.6,29.94,SW,229,26.0,26.0,78,0.00,,,0.00,WUHU216DAVISVP2,2013-03-12 16:46:00,
2013-03-12 12:51:00,35.7,29.5,29.94,West,271,6.0,26.0,78,0.00,,,0.00,WUHU216DAVISVP2,2013-03-12 16:51:00,
2013-03-12 12:56:00,35.8,29.9,29.94,West,274,10.0,24.0,79,0.00,,,0.00,WUHU216DAVISVP2,2013-03-12 16:56:00,
2013-03-12 13:01:00,35.9,29.7,29.94,West,264,12.0,14.0,78,0.00,,,0.00,WUHU216DAVISVP2,2013-03-12 17:01:00,
2013-03-12 13:06:00,35.9,29.7,29.94,West,269,6.0,18.0,78,0.00,,,0.00,WUHU216DAVISVP2,2013-03-12 17:06:00,
2013-03-12 13:11:00,35.9,30.0,29.94,WNW,288,6.0,18.0,79,0.00,,,0.00,WUHU216DAVISVP2,2013-03-12 17:11:00,
2013-03-12 13:16:00,35.9,29.7,29.94,NW,325,10.0,22.0,78,0.00,,,0.00,WUHU216DAVISVP2,2013-03-12 17:16:00,
2013-03-12 13:21:00,36.0,29.8,29.94,WSW,258,8.0,22.0,78,0.00,,,0.00,WUHU216DAVISVP2,2013-03-12 17:21:00,
2013-03-12 13:26:00,35.9,29.7,29.94,West,265,12.0,16.0,78,0.00,,,0.00,WUHU216DAVISVP2,2013-03-12 17:26:00,
2013-03-12 13:31:00,35.8,29.9,29.93,WSW,255,8.0,14.0,79,0.00,,,0.00,WUHU216DAVISVP2,2013-03-12 17:31:00,
2013-03-12 13:37:00,35.9,30.0,29.94,SW,236,12.0,16.0,79,0.00,,,0.00,WUHU216DAVISVP2,2013-03-12 17:37:00,
2013-03-12 13:42:00,35.9,30.3,29.94,SW,222,12.0,20.0,80,0.00,,,0.00,WUHU216DAVISVP2,2013-03-12 17:42:00,
2013-03-12 13:47:00,35.8,30.2,29.94,West,263,6.0,20.0,80,0.00,,,0.00,WUHU216DAVISVP2,2013-03-12 17:47:00,
2013-03-12 13:52:00,35.8,30.2,29.94,West,261,4.0,18.0,80,0.00,,,0.00,WUHU216DAVISVP2,2013-03-12 17:52:00,
2013-03-12 13:57:00,35.9,30.3,29.94,SW,218,6.0,22.0,80,0.00,,,0.00,WUHU216DAVISVP2,2013-03-12 17:57:00,
2013-03-12 14:02:00,35.8,30.2,29.94,NW,304,8.0,22.0,80,0.00,,,0.00,WUHU216DAVISVP2,2013-03-12 18:02:00,
2013-03-12 14:07:00,35.7,30.4,29.94,WSW,253,6.0,20.0,81,0.00,,,0.00,WUHU216DAVISVP2,2013-03-12 18:07:00,
2013-03-12 14:12:00,35.9,30.9,29.94,WNW,286,6.0,16.0,82,0.00,,,0.00,WUHU216DAVISVP2,2013-03-12 18:12:00,
2013-03-12 14:18:00,35.9,30.9,29.94,WNW,288,2.0,12.0,82,0.00,,,0.00,WUHU216DAVISVP2,2013-03-12 18:18:00,
2013-03-12 14:23:00,36.0,31.0,29.93,WSW,257,12.0,18.0,82,0.00,,,0.00,WUHU216DAVISVP2,2013-03-12 18:23:00,
2013-03-12 14:28:00,36.1,31.1,29.94,West,264,2.0,18.0,82,0.00,,,0.00,WUHU216DAVISVP2,2013-03-12 18:28:00,
2013-03-12 14:33:00,36.6,31.0,29.94,West,265,14.0,16.0,80,0.00,,,0.00,WUHU216DAVISVP2,2013-03-12 18:33:00,
2013-03-12 14:38:00,36.6,30.7,29.94,West,271,6.0,16.0,79,0.00,,,0.00,WUHU216DAVISVP2,2013-03-12 18:38:00,
2013-03-12 14:43:00,36.5,30.3,29.94,West,271,12.0,18.0,78,0.00,,,0.00,WUHU216DAVISVP2,2013-03-12 18:43:00,
2013-03-12 14:48:00,36.2,30.0,29.94,WSW,251,10.0,18.0,78,0.00,,,0.00,WUHU216DAVISVP2,2013-03-12 18:48:00,
2013-03-12 14:53:00,36.1,30.2,29.94,SW,233,12.0,30.0,79,0.00,,,0.00,WUHU216DAVISVP2,2013-03-12 18:53:00,
2013-03-12 14:58:00,36.0,30.1,29.94,West,275,12.0,30.0,79,0.00,,,0.00,WUHU216DAVISVP2,2013-03-12 18:58:00,
2013-03-12 15:03:00,36.0,29.8,29.94,WNW,285,8.0,20.0,78,0.00,,,0.00,WUHU216DAVISVP2,2013-03-12 19:03:00,
2013-03-12 15:08:00,36.0,30.1,29.94,West,278,16.0,20.0,79,0.00,,,0.00,WUHU216DAVISVP2,2013-03-12 19:08:00,
2013-03-12 15:13:00,36.0,29.8,29.94,WSW,242,8.0,18.0,78,0.00,,,0.00,WUHU216DAVISVP2,2013-03-12 19:13:00,
2013-03-12 15:18:00,36.0,29.8,29.94,WNW,282,4.0,20.0,78,0.00,,,0.00,WUHU216DAVISVP2,2013-03-12 19:18:00,
2013-03-12 15:23:00,35.9,29.7,29.94,West,279,8.0,20.0,78,0.00,,,0.00,WUHU216DAVISVP2,2013-03-12 19:23:00,
2013-03-12 15:28:00,35.9,30.0,29.94,NW,306,0.0,22.0,79,0.00,,,0.00,WUHU216DAVISVP2,2013-03-12 19:28:00,
2013-03-12 15:34:00,36.0,30.1,29.94,NW,309,14.0,22.0,79,0.00,,,0.00,WUHU216DAVISVP2,2013-03-12 19:34:00,
2013-03-12 15:39:00,35.7,30.1,29.94,SE,144,10.0,16.0,80,0.00,,,0.00,WUHU216DAVISVP2,2013-03-12 19:39:00,
2013-03-12 15:44:00,35.3,30.1,29.95,NW,320,8.0,12.0,81,0.00,,,0.00,WUHU216DAVISVP2,2013-03-12 19:44:00,
2013-03-12 15:49:00,35.3,30.1,29.95,NNE,14,4.0,10.0,81,0.00,,,0.00,WUHU216DAVISVP2,2013-03-12 19:49:00,
2013-03-12 15:54:00,35.5,29.7,29.95,NW,315,6.0,18.0,79,0.00,,,0.00,WUHU216DAVISVP2,2013-03-12 19:54:00,
2013-03-12 15:59:00,35.9,29.7,29.94,West,262,10.0,18.0,78,0.00,,,0.00,WUHU216DAVISVP2,2013-03-12 19:59:00,
2013-03-12 16:04:00,36.1,29.9,29.94,NW,306,4.0,14.0,78,0.00,,,0.00,WUHU216DAVISVP2,2013-03-12 20:04:00,
2013-03-12 16:09:00,36.4,30.2,29.94,WNW,297,6.0,12.0,78,0.00,,,0.00,WUHU216DAVISVP2,2013-03-12 20:09:00,
2013-03-12 16:14:00,36.4,30.5,29.95,NW,317,8.0,16.0,79,0.00,,,0.00,WUHU216DAVISVP2,2013-03-12 20:14:00,
2013-03-12 16:19:00,35.6,30.6,29.95,West,269,12.0,16.0,82,0.00,,,0.00,WUHU216DAVISVP2,2013-03-12 20:19:00,
2013-03-12 16:24:00,35.2,30.5,29.95,WNW,284,4.0,14.0,83,0.00,,,0.00,WUHU216DAVISVP2,2013-03-12 20:24:00,
2013-03-12 16:29:00,35.0,30.3,29.95,WNW,294,4.0,12.0,83,0.00,,,0.00,WUHU216DAVISVP2,2013-03-12 20:29:00,
2013-03-12 16:34:00,34.7,30.3,29.95,West,276,2.0,20.0,84,0.00,,,0.00,WUHU216DAVISVP2,2013-03-12 20:34:00,
2013-03-12 16:39:00,34.6,30.2,29.95,West,265,12.0,20.0,84,0.00,,,0.00,WUHU216DAVISVP2,2013-03-12 20:39:00,
2013-03-12 16:44:00,34.5,30.1,29.95,WNW,292,6.0,18.0,84,0.00,,,0.00,WUHU216DAVISVP2,2013-03-12 20:44:00,
2013-03-12 16:49:00,34.4,30.0,29.95,West,272,4.0,12.0,84,0.00,,,0.00,WUHU216DAVISVP2,2013-03-12 20:49:00,
2013-03-12 16:55:00,34.5,30.1,29.95,West,277,6.0,12.0,84,0.00,,,0.00,WUHU216DAVISVP2,2013-03-12 20:55:00,
2013-03-12 17:00:00,34.7,29.8,29.95,WNW,299,10.0,20.0,82,0.00,,,0.00,WUHU216DAVISVP2,2013-03-12 21:00:00,
2013-03-12 17:05:00,35.0,29.5,29.95,SW,231,10.0,20.0,80,0.00,,,0.00,WUHU216DAVISVP2,2013-03-12 21:05:00,
2013-03-12 17:10:00,35.1,29.6,29.95,WSW,242,6.0,22.0,80,0.00,,,0.00,WUHU216DAVISVP2,2013-03-12 21:10:00,
2013-03-12 17:15:00,35.2,29.4,29.96,West,261,4.0,22.0,79,0.00,,,0.00,WUHU216DAVISVP2,2013-03-12 21:15:00,
2013-03-12 17:20:00,35.2,29.7,29.96,NNW,335,8.0,14.0,80,0.00,,,0.00,WUHU216DAVISVP2,2013-03-12 21:20:00,
2013-03-12 17:25:00,34.4,29.5,29.95,NW,307,4.0,18.0,82,0.00,,,0.00,WUHU216DAVISVP2,2013-03-12 21:25:00,
2013-03-12 17:30:00,33.8,29.5,29.95,WNW,295,4.0,18.0,84,0.00,,,0.00,WUHU216DAVISVP2,2013-03-12 21:30:00,
2013-03-12 17:35:00,33.5,29.5,29.96,West,279,6.0,10.0,85,0.00,,,0.00,WUHU216DAVISVP2,2013-03-12 21:35:00,
2013-03-12 17:40:00,33.3,29.5,29.96,WNW,302,10.0,16.0,86,0.00,,,0.00,WUHU216DAVISVP2,2013-03-12 21:40:00,
2013-03-12 17:45:00,33.2,29.4,29.96,West,281,2.0,16.0,86,0.00,,,0.00,WUHU216DAVISVP2,2013-03-12 21:45:00,
2013-03-12 17:50:00,33.1,29.6,29.96,NNW,331,4.0,8.0,87,0.00,,,0.00,WUHU216DAVISVP2,2013-03-12 21:50:00,
2013-03-12 17:55:00,33.1,29.6,29.96,WNW,286,2.0,8.0,87,0.00,,,0.00,WUHU216DAVISVP2,2013-03-12 21:55:00,
2013-03-12 18:00:00,33.2,29.4,29.97,West,263,4.0,10.0,86,0.00,,,0.00,WUHU216DAVISVP2,2013-03-12 22:00:00,
2013-03-12 18:05:00,33.3,29.5,29.97,WNW,298,6.0,12.0,86,0.00,,,0.00,WUHU216DAVISVP2,2013-03-12 22:05:00,
2013-03-12 18:10:00,33.5,29.7,29.97,WNW,301,0.0,12.0,86,0.00,,,0.00,WUHU216DAVISVP2,2013-03-12 22:10:00,
2013-03-12 18:15:00,33.6,29.5,29.97,WNW,298,0.0,8.0,85,0.00,,,0.00,WUHU216DAVISVP2,2013-03-12 22:15:00,
2013-03-12 18:20:00,33.6,29.5,29.97,WNW,297,4.0,8.0,85,0.00,,,0.00,WUHU216DAVISVP2,2013-03-12 22:20:00,
2013-03-12 18:25:00,33.6,29.5,29.97,WSW,246,2.0,8.0,85,0.00,,,0.00,WUHU216DAVISVP2,2013-03-12 22:25:00,
2013-03-12 18:31:00,33.6,29.5,29.97,WNW,290,2.0,8.0,85,0.00,,,0.00,WUHU216DAVISVP2,2013-03-12 22:31:00,
2013-03-12 18:36:00,33.7,29.6,29.98,West,269,0.0,8.0,85,0.00,,,0.00,WUHU216DAVISVP2,2013-03-12 22:36:00,
2013-03-12 18:41:00,33.7,29.4,29.98,West,263,6.0,10.0,84,0.00,,,0.00,WUHU216DAVISVP2,2013-03-12 22:41:00,
2013-03-12 18:46:00,33.7,29.4,29.98,NW,321,0.0,12.0,84,0.00,,,0.00,WUHU216DAVISVP2,2013-03-12 22:46:00,
2013-03-12 18:51:00,33.6,29.3,29.98,NW,320,4.0,12.0,84,0.00,,,0.00,WUHU216DAVISVP2,2013-03-12 22:51:00,
2013-03-12 18:57:00,33.6,29.3,29.98,WNW,299,2.0,10.0,84,0.00,,,0.00,WUHU216DAVISVP2,2013-03-12 22:57:00,
2013-03-12 19:02:00,33.6,29.3,29.98,WNW,300,4.0,10.0,84,0.00,,,0.00,WUHU216DAVISVP2,2013-03-12 23:02:00,
2013-03-12 19:07:00,33.5,29.2,29.99,NW,305,4.0,10.0,84,0.00,,,0.00,WUHU216DAVISVP2,2013-03-12 23:07:00,
2013-03-12 19:12:00,33.5,28.9,29.99,NW,311,8.0,10.0,83,0.00,,,0.00,WUHU216DAVISVP2,2013-03-12 23:12:00,
2013-03-12 19:17:00,33.6,29.3,29.99,WSW,254,2.0,10.0,84,0.00,,,0.00,WUHU216DAVISVP2,2013-03-12 23:17:00,
2013-03-12 19:22:00,33.7,28.8,29.99,West,271,2.0,14.0,82,0.00,,,0.00,WUHU216DAVISVP2,2013-03-12 23:22:00,
2013-03-12 19:27:00,33.8,28.9,29.99,WNW,288,6.0,14.0,82,0.00,,,0.00,WUHU216DAVISVP2,2013-03-12 23:27:00,
2013-03-12 19:32:00,33.9,29.0,29.99,West,273,4.0,8.0,82,0.00,,,0.00,WUHU216DAVISVP2,2013-03-12 23:32:00,
2013-03-12 19:37:00,33.9,29.0,29.99,WNW,291,6.0,10.0,82,0.00,,,0.00,WUHU216DAVISVP2,2013-03-12 23:37:00,
2013-03-12 19:42:00,33.9,28.7,30.00,West,273,6.0,12.0,81,0.00,,,0.00,WUHU216DAVISVP2,2013-03-12 23:42:00,
2013-03-12 19:47:00,34.0,28.8,30.00,West,281,8.0,12.0,81,0.00,,,0.00,WUHU216DAVISVP2,2013-03-12 23:47:00,
2013-03-12 19:52:00,34.0,28.8,30.00,West,278,10.0,14.0,81,0.00,,,0.00,WUHU216DAVISVP2,2013-03-12 23:52:00,
2013-03-12 19:57:00,34.1,28.6,30.00,WNW,282,6.0,14.0,80,0.00,,,0.00,WUHU216DAVISVP2,2013-03-12 23:57:00,
2013-03-12 20:02:00,34.2,28.4,30.00,WNW,295,12.0,26.0,79,0.00,,,0.00,WUHU216DAVISVP2,2013-03-13 00:02:00,
2013-03-12 20:07:00,34.2,28.1,30.01,West,277,16.0,26.0,78,0.00,,,0.00,WUHU216DAVISVP2,2013-03-13 00:07:00,
2013-03-12 20:13:00,34.1,28.0,30.01,NW,323,12.0,26.0,78,0.00,,,0.00,WUHU216DAVISVP2,2013-03-13 00:13:00,
2013-03-12 20:18:00,33.9,27.8,30.01,West,279,14.0,22.0,78,0.00,,,0.00,WUHU216DAVISVP2,2013-03-13 00:18:00,
2013-03-12 20:23:00,33.6,27.5,30.01,NW,316,14.0,22.0,78,0.00,,,0.00,WUHU216DAVISVP2,2013-03-13 00:23:00,
2013-03-12 20:28:00,33.5,27.4,30.01,WNW,288,8.0,22.0,78,0.00,,,0.00,WUHU216DAVISVP2,2013-03-13 00:28:00,
2013-03-12 20:32:00,33.5,27.4,30.02,West,273,4.0,22.0,78,0.00,,,0.00,WUHU216DAVISVP2,2013-03-13 00:32:00,
2013-03-12 20:38:00,33.4,27.6,30.02,West,281,10.0,14.0,79,0.00,,,0.00,WUHU216DAVISVP2,2013-03-13 00:38:00,
2013-03-12 20:43:00,33.4,27.3,30.02,WSW,239,6.0,14.0,78,0.00,,,0.00,WUHU216DAVISVP2,2013-03-13 00:43:00,
2013-03-12 20:48:00,33.4,27.0,30.02,NE,35,2.0,14.0,77,0.00,,,0.00,WUHU216DAVISVP2,2013-03-13 00:48:00,
2013-03-12 20:53:00,33.5,26.5,30.02,West,267,6.0,18.0,75,0.00,,,0.00,WUHU216DAVISVP2,2013-03-13 00:53:00,
2013-03-12 20:58:00,33.5,25.8,30.02,WNW,284,12.0,18.0,73,0.00,,,0.00,WUHU216DAVISVP2,2013-03-13 00:58:00,
2013-03-12 21:03:00,33.6,26.2,30.02,West,269,4.0,20.0,74,0.00,,,0.00,WUHU216DAVISVP2,2013-03-13 01:03:00,
2013-03-12 21:08:00,33.5,26.1,30.02,NW,319,8.0,20.0,74,0.00,,,0.00,WUHU216DAVISVP2,2013-03-13 01:08:00,
2013-03-12 21:13:00,33.5,26.1,30.03,WNW,296,2.0,16.0,74,0.00,,,0.00,WUHU216DAVISVP2,2013-03-13 01:13:00,
2013-03-12 21:18:00,33.4,26.4,30.03,West,280,8.0,12.0,75,0.00,,,0.00,WUHU216DAVISVP2,2013-03-13 01:18:00,
2013-03-12 21:23:00,33.4,25.7,30.03,NW,308,6.0,12.0,73,0.00,,,0.00,WUHU216DAVISVP2,2013-03-13 01:23:00,
2013-03-12 21:28:00,33.4,26.1,30.03,West,269,4.0,16.0,74,0.00,,,0.00,WUHU216DAVISVP2,2013-03-13 01:28:00,
2013-03-12 21:33:00,33.4,26.1,30.03,WNW,283,10.0,16.0,74,0.00,,,0.00,WUHU216DAVISVP2,2013-03-13 01:33:00,
2013-03-12 21:38:00,33.4,25.7,30.03,WSW,242,6.0,18.0,73,0.00,,,0.00,WUHU216DAVISVP2,2013-03-13 01:38:00,
2013-03-12 21:43:00,33.4,25.7,30.02,West,279,2.0,18.0,73,0.00,,,0.00,WUHU216DAVISVP2,2013-03-13 01:43:00,
2013-03-12 21:48:00,33.4,25.7,30.02,West,269,6.0,18.0,73,0.00,,,0.00,WUHU216DAVISVP2,2013-03-13 01:48:00,
2013-03-12 21:53:00,33.4,26.4,30.02,WNW,290,2.0,18.0,75,0.00,,,0.00,WUHU216DAVISVP2,2013-03-13 01:53:00,
2013-03-12 21:58:00,33.4,26.1,30.02,West,281,0.0,12.0,74,0.00,,,0.00,WUHU216DAVISVP2,2013-03-13 01:58:00,
2013-03-12 22:03:00,33.4,26.1,30.02,WNW,287,2.0,12.0,74,0.00,,,0.00,WUHU216DAVISVP2,2013-03-13 02:03:00,
2013-03-12 22:08:00,33.4,26.4,30.02,West,263,0.0,12.0,75,0.00,,,0.00,WUHU216DAVISVP2,2013-03-13 02:08:00,
2013-03-12 22:14:00,33.4,26.1,30.02,SW,221,6.0,12.0,74,0.00,,,0.00,WUHU216DAVISVP2,2013-03-13 02:14:00,
2013-03-12 22:19:00,33.4,26.1,30.02,WSW,244,2.0,12.0,74,0.00,,,0.00,WUHU216DAVISVP2,2013-03-13 02:19:00,
2013-03-12 22:24:00,33.4,26.1,30.02,SW,228,2.0,8.0,74,0.00,,,0.00,WUHU216DAVISVP2,2013-03-13 02:24:00,
2013-03-12 22:29:00,33.4,26.1,30.02,West,264,4.0,10.0,74,0.00,,,0.00,WUHU216DAVISVP2,2013-03-13 02:29:00,
2013-03-12 22:34:00,33.4,26.4,30.02,West,277,4.0,10.0,75,0.00,,,0.00,WUHU216DAVISVP2,2013-03-13 02:34:00,
2013-03-12 22:39:00,33.4,26.1,30.02,West,273,6.0,12.0,74,0.00,,,0.00,WUHU216DAVISVP2,2013-03-13 02:39:00,
2013-03-12 22:44:00,33.5,26.1,30.02,West,265,4.0,12.0,74,0.00,,,0.00,WUHU216DAVISVP2,2013-03-13 02:44:00,
2013-03-12 22:49:00,33.5,26.1,30.02,WSW,240,0.0,8.0,74,0.00,,,0.00,WUHU216DAVISVP2,2013-03-13 02:49:00,
2013-03-12 22:54:00,33.5,26.1,30.02,West,261,0.0,6.0,74,0.00,,,0.00,WUHU216DAVISVP2,2013-03-13 02:54:00,
2013-03-12 22:59:00,33.5,26.5,30.02,WSW,250,4.0,6.0,75,0.00,,,0.00,WUHU216DAVISVP2,2013-03-13 02:59:00,
2013-03-12 23:04:00,33.6,26.2,30.02,West,267,2.0,10.0,74,0.00,,,0.00,WUHU216DAVISVP2,2013-03-13 03:04:00,
2013-03-12 23:09:00,33.7,26.7,30.02,WSW,237,4.0,10.0,75,0.00,,,0.00,WUHU216DAVISVP2,2013-03-13 03:09:00,
2013-03-12 23:14:00,33.6,26.6,30.02,West,261,0.0,8.0,75,0.00,,,0.00,WUHU216DAVISVP2,2013-03-13 03:14:00,
2013-03-12 23:19:00,33.6,26.9,30.02,SW,234,2.0,10.0,76,0.00,,,0.00,WUHU216DAVISVP2,2013-03-13 03:19:00,
2013-03-12 23:24:00,33.6,26.9,30.02,SSW,201,4.0,10.0,76,0.00,,,0.00,WUHU216DAVISVP2,2013-03-13 03:24:00,
2013-03-12 23:29:00,33.6,27.2,30.02,WSW,240,4.0,18.0,77,0.00,,,0.00,WUHU216DAVISVP2,2013-03-13 03:29:00,
2013-03-12 23:34:00,33.5,27.1,30.01,SSW,213,4.0,18.0,77,0.00,,,0.00,WUHU216DAVISVP2,2013-03-13 03:34:00,
2013-03-12 23:39:00,33.5,27.1,30.01,WSW,238,0.0,12.0,77,0.00,,,0.00,WUHU216DAVISVP2,2013-03-13 03:39:00,
2013-03-12 23:44:00,33.4,27.3,30.01,SW,217,2.0,12.0,78,0.00,,,0.00,WUHU216DAVISVP2,2013-03-13 03:44:00,
2013-03-12 23:49:00,33.3,27.2,30.01,West,272,4.0,10.0,78,0.00,,,0.00,WUHU216DAVISVP2,2013-03-13 03:49:00,
2013-03-12 23:54:00,33.3,27.2,30.01,SSW,207,2.0,10.0,78,0.00,,,0.00,WUHU216DAVISVP2,2013-03-13 03:54:00,
2013-03-12 23:59:00,33.2,27.1,30.01,WSW,244,0.0,8.0,78,0.00,,,0.00,WUHU216DAVISVP2,2013-03-13 03:59:00,